{"data":{"norad_id":64084,"epoch":"2026-09-20T11:30:35.752608Z","epoch_age_seconds":145306,"freshness":"FRESH","line1":"1 64084U 25107W   26263.47958047  .00000506  00000+0  27913-4 0  9996","line2":"2 64084  43.0010 181.2466 0003060 262.6666  97.3838 15.27599250 75895","mean_motion":15.2759925,"eccentricity":0.000306,"inclination_deg":43.001,"raan_deg":181.2466,"arg_perigee_deg":262.6666,"mean_anomaly_deg":97.3838,"bstar":2.7913e-5,"rev_number":7589,"period_min":94.265560813806,"perigee_km":480.89194991251,"apogee_km":485.09096052711,"semimajor_km":6861.1284552198,"source":"CELESTRAK","updated_at":"2026-09-21T09:00:35.225521Z"}}